Overview Statistics Trail Chart Weather Telemetry Raw packets
 

This is the latest recevied weather packets stored in our database for station/object ES0THZ-13. If no packets are shown the sender has not sent any weather packets the latest 10 day(s).

<< 18 19 20 21 22 23 24 >>
Time Temp. Humidity Pressure Rain* Wind** Luminosity Snow
1788111426 17.78° C 84% 1004 hPa - - - -
1788110340 17.78° C 84% 1004.1 hPa - - - -
1788109266 17.78° C 83% 1004 hPa - - - -
1788108211 17.78° C 82% 1003.6 hPa - - - -
1788107139 19.44° C 82% 1003.8 hPa - - - -
1788106036 20° C 80% 1003.5 hPa - - - -
1788105051 19.44° C 80% 1003.7 hPa - - - -
1788103886 21.11° C 79% 1003 hPa - - - -
1788102736 21.11° C 79% 1004.3 hPa - - - -
1788101623 21.67° C 78% 1003.3 hPa - - - -
1788100451 22.22° C 78% 1003.8 hPa - - - -
1788099391 22.22° C 78% 1005.3 hPa - - - -
1788098260 22.22° C 78% 1003.8 hPa - - - -
1788097236 23.33° C 78% 1004.4 hPa - - - -
1788096151 25° C 77% 1003.8 hPa - - - -
1788095139 23.89° C 77% 1004.5 hPa - - - -
1788094116 22.78° C 79% 1005 hPa - - - -
1788093020 23.89° C 78% 1005.1 hPa - - - -
1788091911 22.78° C 79% 1004.4 hPa - - - -
1788090826 22.78° C 79% 1004.2 hPa - - - -
1788089760 23.89° C 79% 1004 hPa - - - -
1788088670 22.78° C 80% 1005.1 hPa - - - -
1788087671 21.67° C 81% 1004.6 hPa - - - -
1788086546 23.89° C 79% 1004.4 hPa - - - -
1788085400 23.33° C 81% 1004.1 hPa - - - -

* Rain since midnight (hover to see other rain measurements)
** Current wind speed in m/s (hover to see current wind gust speed)